Hawk 7C

operational
NORAD ID: 56200 Int'l Des: 2023-054 Owner: HE360 Country: US
LEOCIRCULARRETROGRADESSO

关于 Hawk 7C

正在加载描述...

实时位置

正在加载3D地球...

即将过境

高度历史

Altitude vs Time

uPlot chart will show altitude changes over time

两行轨道根数

1 56200U 23054Y 26063.11578811 .00009679 00000-0 37771-3 0 9995
2 56200 97.2850 312.1532 0003969 63.9772 296.1875 15.26110098160990
Epoch: Mar 4, 2026 • Age: 17 hours

当前状态

高度 498.6 km
速度 7.62 km/s
星下点 82.07°N, 135.86°E
发射日期 Apr 15, 2023
运行时间 2.8 years
类型 other

技术详情

分类 Payload
质量 31.00 kg
干质量 30.00 kg
总质量 31.00 kg
长度 0.45 m
直径 0.30 m
跨度 1.00 m
形状 Box + 2 pan
制造商 UTIAS
平台类型 Hawk2G
阶段状态 In Orbit
所有者/国家 HE360/US

大型星座

Loading constellations...